• In Hungary
  • List of Countries
  • For 7 days
  • Water Temperature
  • Satellite Maps
  • Weather Map
  • News
  • Weather Widgets
  • user-avatar
    Login

    Hourly Weather Kapan

    Today, 23 May, Wednesday

    Time Temperature Precipitation Wind Pressure Humidity
    00:00 +17°C° 0.2 mm 2 mps 688 mmHg 73%
    01:00 +17°C° 0.1 mm 2 mps 687 mmHg 72%
    02:00 +17°C° 0.1 mm 2 mps 687 mmHg 71%
    03:00 +16°C° 0.1 mm 2 mps 687 mmHg 69%
    04:00 +17°C° 0.1 mm 2 mps 688 mmHg 66%
    05:00 +17°C° 0.1 mm 2 mps 688 mmHg 63%
    06:00 +18°C° 0.1 mm 2 mps 688 mmHg 60%
    07:00 +20°C° 0.1 mm 2 mps 688 mmHg 53%
    08:00 +21°C° 0.1 mm 2 mps 689 mmHg 46%
    09:00 +24°C° 0.1 mm 2 mps 689 mmHg 40%
    10:00 +25°C° 0 mm 3 mps 689 mmHg 38%
    11:00 +26°C° 0 mm 3 mps 689 mmHg 35%
    12:00 +27°C° 0 mm 4 mps 689 mmHg 33%
    13:00 +27°C° 0 mm 4 mps 688 mmHg 34%
    14:00 +27°C° 0 mm 4 mps 688 mmHg 34%
    15:00 +27°C° 0 mm 4 mps 688 mmHg 34%
    16:00 +26°C° 0 mm 4 mps 687 mmHg 38%
    17:00 +25°C° 0 mm 4 mps 687 mmHg 41%
    18:00 +24°C° 0 mm 3 mps 687 mmHg 44%
    19:00 +21°C° 0 mm 3 mps 687 mmHg 48%
    20:00 +19°C° 0 mm 3 mps 687 mmHg 51%
    21:00 +18°C° 0 mm 2 mps 687 mmHg 55%
    22:00 +18°C° 0 mm 2 mps 687 mmHg 54%
    23:00 +17°C° 0 mm 2 mps 687 mmHg 54%

    Tomorrow, 24 May, Thursday

    Time Temperature Precipitation Wind Pressure Humidity
    00:00 +17°C° 0 mm 2 mps 687 mmHg 53%
    01:00 +17°C° 0 mm 2 mps 687 mmHg 51%
    02:00 +17°C° 0 mm 2 mps 686 mmHg 48%
    03:00 +17°C° 0 mm 2 mps 686 mmHg 45%
    04:00 +17°C° 0 mm 2 mps 686 mmHg 44%
    05:00 +17°C° 0 mm 2 mps 686 mmHg 42%
    06:00 +18°C° 0 mm 2 mps 686 mmHg 41%
    07:00 +20°C° 0 mm 2 mps 687 mmHg 36%
    08:00 +21°C° 0 mm 2 mps 687 mmHg 32%
    09:00 +24°C° 0 mm 2 mps 687 mmHg 28%
    10:00 +25°C° 0 mm 2 mps 687 mmHg 27%
    11:00 +25°C° 0 mm 3 mps 686 mmHg 27%
    12:00 +26°C° 0 mm 3 mps 686 mmHg 26%
    13:00 +26°C° 0 mm 3 mps 686 mmHg 27%
    14:00 +27°C° 0 mm 3 mps 685 mmHg 29%
    15:00 +27°C° 0 mm 3 mps 685 mmHg 30%
    16:00 +26°C° 0.1 mm 3 mps 685 mmHg 33%
    17:00 +25°C° 0.1 mm 3 mps 684 mmHg 36%
    18:00 +24°C° 0.1 mm 2 mps 684 mmHg 39%
    19:00 +21°C° 0 mm 2 mps 684 mmHg 42%
    20:00 +20°C° 0 mm 2 mps 684 mmHg 45%
    21:00 +18°C° 0 mm 2 mps 683 mmHg 48%
    22:00 +18°C° 0.1 mm 2 mps 683 mmHg 49%
    23:00 +18°C° 0.1 mm 2 mps 683 mmHg 49%

    Day after tomorrow, 25 May, Friday

    Time Temperature Precipitation Wind Pressure Humidity
    00:00 +18°C° 0.1 mm 2 mps 683 mmHg 50%
    01:00 +18°C° 0 mm 2 mps 683 mmHg 50%
    02:00 +18°C° 0 mm 2 mps 683 mmHg 51%
    03:00 +18°C° 0 mm 2 mps 682 mmHg 51%
    04:00 +19°C° 0 mm 1 mps 683 mmHg 51%
    05:00 +20°C° 0 mm 1 mps 683 mmHg 52%
    06:00 +20°C° 0 mm 1 mps 683 mmHg 52%
    07:00 +22°C° 0 mm 1 mps 683 mmHg 48%
    08:00 +24°C° 0 mm 1 mps 683 mmHg 44%
    09:00 +25°C° 0 mm 1 mps 683 mmHg 40%
    10:00 +26°C° 0.1 mm 2 mps 683 mmHg 38%
    11:00 +27°C° 0.1 mm 2 mps 683 mmHg 36%
    12:00 +28°C° 0.1 mm 2 mps 683 mmHg 35%
    13:00 +28°C° 0.4 mm 3 mps 682 mmHg 35%
    14:00 +29°C° 0.4 mm 3 mps 682 mmHg 35%
    15:00 +29°C° 0.4 mm 3 mps 681 mmHg 35%
    16:00 +28°C° 0.2 mm 2 mps 681 mmHg 38%
    17:00 +27°C° 0.2 mm 2 mps 681 mmHg 41%
    18:00 +26°C° 0.2 mm 2 mps 681 mmHg 44%
    19:00 +24°C° 0.2 mm 1 mps 681 mmHg 49%
    20:00 +22°C° 0.2 mm 1 mps 681 mmHg 54%
    21:00 +21°C° 0.2 mm 1 mps 681 mmHg 60%
    22:00 +21°C° 0.2 mm 1 mps 681 mmHg 60%
    23:00 +19°C° 0.2 mm 2 mps 681 mmHg 60%

    26 May, Saturday

    Time Temperature Precipitation Wind Pressure Humidity
    00:00 +19°C° 0.2 mm 2 mps 681 mmHg 61%
    01:00 +19°C° 0.1 mm 2 mps 681 mmHg 60%
    02:00 +19°C° 0.1 mm 2 mps 681 mmHg 59%
    03:00 +19°C° 0.1 mm 2 mps 681 mmHg 58%
    04:00 +20°C° 0 mm 2 mps 681 mmHg 57%
    05:00 +20°C° 0 mm 2 mps 682 mmHg 56%
    06:00 +22°C° 0 mm 1 mps 682 mmHg 54%
    07:00 +23°C° 0 mm 1 mps 683 mmHg 49%
    08:00 +25°C° 0 mm 2 mps 683 mmHg 44%
    09:00 +27°C° 0 mm 2 mps 683 mmHg 39%
    10:00 +27°C° 0 mm 2 mps 683 mmHg 37%
    11:00 +28°C° 0 mm 2 mps 683 mmHg 35%
    12:00 +29°C° 0 mm 3 mps 683 mmHg 33%
    13:00 +29°C° 0 mm 3 mps 683 mmHg 32%
    14:00 +30°C° 0 mm 3 mps 683 mmHg 32%
    15:00 +30°C° 0 mm 3 mps 682 mmHg 31%
    16:00 +29°C° 0.1 mm 3 mps 682 mmHg 36%
    17:00 +28°C° 0.1 mm 2 mps 682 mmHg 40%
    18:00 +27°C° 0.1 mm 2 mps 682 mmHg 44%
    19:00 +25°C° 0.2 mm 2 mps 683 mmHg 50%
    20:00 +23°C° 0.2 mm 1 mps 683 mmHg 57%
    21:00 +21°C° 0.2 mm 1 mps 684 mmHg 63%
    22:00 +20°C° 0.2 mm 1 mps 684 mmHg 65%
    23:00 +20°C° 0.2 mm 1 mps 684 mmHg 66%

    27 May, Sunday

    Time Temperature Precipitation Wind Pressure Humidity
    00:00 +20°C° 0.2 mm 1 mps 684 mmHg 67%
    01:00 +19°C° 0.1 mm 1 mps 685 mmHg 69%
    02:00 +19°C° 0.1 mm 1 mps 685 mmHg 71%
    03:00 +18°C° 0.1 mm 1 mps 685 mmHg 74%
    04:00 +18°C° 0 mm 1 mps 686 mmHg 74%
    05:00 +18°C° 0 mm 2 mps 686 mmHg 75%
    06:00 +18°C° 0 mm 2 mps 687 mmHg 76%
    07:00 +18°C° 0 mm 2 mps 687 mmHg 73%
    08:00 +19°C° 0 mm 3 mps 688 mmHg 70%
    09:00 +19°C° 0 mm 3 mps 688 mmHg 67%
    10:00 +19°C° 0 mm 3 mps 688 mmHg 65%
    11:00 +20°C° 0 mm 3 mps 688 mmHg 63%
    12:00 +20°C° 0 mm 3 mps 689 mmHg 61%
    13:00 +21°C° 0 mm 3 mps 689 mmHg 59%
    14:00 +21°C° 0 mm 4 mps 688 mmHg 58%
    15:00 +22°C° 0 mm 4 mps 688 mmHg 56%
    16:00 +21°C° 0 mm 3 mps 689 mmHg 60%
    17:00 +20°C° 0 mm 3 mps 689 mmHg 64%
    18:00 +19°C° 0 mm 3 mps 689 mmHg 68%
    19:00 +17°C° 0 mm 3 mps 689 mmHg 74%
    20:00 +16°C° 0 mm 2 mps 689 mmHg 79%
    21:00 +15°C° 0 mm 2 mps 689 mmHg 84%
    22:00 +15°C° 0 mm 2 mps 689 mmHg 84%
    23:00 +14°C° 0 mm 1 mps 689 mmHg 84%

    28 May, Monday

    Time Temperature Precipitation Wind Pressure Humidity
    00:00 +14°C° 0 mm 1 mps 689 mmHg 85%
    01:00 +14°C° 0 mm 1 mps 689 mmHg 84%
    02:00 +14°C° 0 mm 1 mps 689 mmHg 83%
    03:00 +14°C° 0 mm 1 mps 688 mmHg 82%
    04:00 +15°C° 0 mm 1 mps 689 mmHg 77%
    05:00 +16°C° 0 mm 1 mps 689 mmHg 73%
    06:00 +18°C° 0 mm 1 mps 689 mmHg 69%
    07:00 +20°C° 0 mm 1 mps 689 mmHg 62%
    08:00 +21°C° 0 mm 2 mps 689 mmHg 55%
    09:00 +24°C° 0 mm 2 mps 689 mmHg 48%
    10:00 +26°C° 0 mm 2 mps 689 mmHg 44%
    11:00 +27°C° 0 mm 2 mps 689 mmHg 41%
    12:00 +28°C° 0 mm 3 mps 688 mmHg 37%
    13:00 +29°C° 0 mm 3 mps 688 mmHg 37%
    14:00 +29°C° 0 mm 3 mps 688 mmHg 37%
    15:00 +29°C° 0 mm 3 mps 687 mmHg 37%
    16:00 +28°C° 0 mm 3 mps 687 mmHg 41%
    17:00 +27°C° 0 mm 3 mps 687 mmHg 46%
    18:00 +26°C° 0 mm 3 mps 687 mmHg 50%
    19:00 +24°C° 0 mm 2 mps 687 mmHg 58%
    20:00 +21°C° 0 mm 2 mps 687 mmHg 66%
    21:00 +19°C° 0 mm 1 mps 687 mmHg 74%
    22:00 +19°C° 0 mm 1 mps 687 mmHg 74%
    23:00 +19°C° 0 mm 1 mps 687 mmHg 75%
    Show more